Siloam Springs, AR

6:30 PM CDT on March 27, 2017 (GMT -0500)
Smith

Weather History for KSLG - February, 2012

Change the Weather History Date:

Monday, February 20, 2012

  Actual Average Record
Temperature  
Mean Temperature 46 °F -  
Max Temperature 55 °F 49 °F 73 °F (2005)
Min Temperature 37 °F 32 °F 21 °F (2006)
Degree Days  
Heating Degree Days 19    
Moisture  
Dew Point 33 °F    
Average Humidity 61    
Maximum Humidity 81    
Minimum Humidity 47    
Precipitation  
Precipitation 0.00 in - - ()
Sea Level Pressure  
Sea Level Pressure 29.99 in    
Wind  
Wind Speed 11 mph (SE)    
Max Wind Speed 28 mph    
Max Gust Speed 34 mph    
Visibility 10 miles    
Events      
Averages and records for this station are not official NWS values.
T = Trace of Precipitation, MM = Missing Value Source: NWS Daily Summary

Daily Weather History Graph

Daily Weather History Graph

Search for Another Location

Airport or City:

Trip Planner

Search our weather history database for the weather conditions in past years. The results will help you decide how hot, cold, wet, or windy it might be!

Date:

Astronomy

Feb. 20, 2012 Rise Set
Actual Time 7:00 AM CST 6:03 PM CST
Civil Twilight 6:34 AM CST 6:29 PM CST
Nautical Twilight 6:04 AM CST 6:59 PM CST
Astronomical Twilight 5:34 AM CST 7:29 PM CST
Moon 5:56 AM CST (2/20) 5:09 PM CST (2/20)
Length of Visible Light 11h 55m
Length of Day
11h 03m
Waning Crescent, 1% of the Moon is Illuminated
Feb 20
Waning Crescent
Feb 21
New
Feb 29
First Quarter
Mar 8
Full
Mar 14
Last Quarter

Hourly Weather History & Observations

Time (CST) Temp. Windchill Dew Point Humidity Pressure Visibility Wind Dir Wind Speed Gust Speed Precip Events Conditions
12:15 AM 39.2 °F 33.6 °F 28.4 °F 65% 30.07 in 10.0 mi ESE 8.1 mph - N/A   Clear
12:35 AM 41.0 °F 35.2 °F 30.2 °F 65% 30.05 in 10.0 mi ESE 9.2 mph - N/A   Scattered Clouds
12:55 AM 41.0 °F 35.8 °F 30.2 °F 65% 30.05 in 10.0 mi ESE 8.1 mph - N/A   Partly Cloudy
1:15 AM 41.0 °F 35.8 °F 30.2 °F 65% 30.06 in 10.0 mi ESE 8.1 mph - N/A   Clear
1:35 AM 41.0 °F 36.4 °F 30.2 °F 65% 30.05 in 10.0 mi ESE 6.9 mph - N/A   Clear
1:55 AM 41.0 °F 38.0 °F 30.2 °F 65% 30.06 in 10.0 mi SE 4.6 mph - N/A   Clear
2:15 AM 41.0 °F 38.0 °F 30.2 °F 65% 30.07 in 10.0 mi SE 4.6 mph - N/A   Clear
2:35 AM 41.0 °F 39.0 °F 32.0 °F 70% 30.08 in 10.0 mi SE 3.5 mph - N/A   Clear
2:55 AM 41.0 °F 36.4 °F 30.2 °F 65% 30.06 in 10.0 mi ESE 6.9 mph - N/A   Clear
3:15 AM 39.2 °F 34.2 °F 30.2 °F 70% 30.06 in 10.0 mi East 6.9 mph - N/A   Clear
3:35 AM 39.2 °F 33.6 °F 30.2 °F 70% 30.06 in 10.0 mi ESE 8.1 mph - N/A   Clear
3:55 AM 39.2 °F 35.0 °F 32.0 °F 75% 30.06 in 10.0 mi East 5.8 mph - N/A   Clear
4:15 AM 39.2 °F 34.2 °F 30.2 °F 70% 30.06 in 10.0 mi ESE 6.9 mph - N/A   Clear
4:35 AM 37.4 °F 32.1 °F 30.2 °F 75% 30.05 in 10.0 mi ESE 6.9 mph - N/A   Clear
4:55 AM 39.2 °F 34.2 °F 30.2 °F 70% 30.05 in 10.0 mi ESE 6.9 mph - N/A   Clear
5:15 AM 39.2 °F 34.2 °F 32.0 °F 75% 30.05 in 10.0 mi ESE 6.9 mph - N/A   Clear
5:35 AM 39.2 °F 34.2 °F 32.0 °F 75% 30.05 in 10.0 mi ESE 6.9 mph - N/A   Clear
5:55 AM 39.2 °F 33.0 °F 32.0 °F 75% 30.05 in 10.0 mi ESE 9.2 mph - N/A   Clear
6:15 AM 39.2 °F 33.6 °F 33.8 °F 81% 30.06 in 10.0 mi ESE 8.1 mph - N/A   Clear
6:35 AM 39.2 °F 33.6 °F 33.8 °F 81% 30.06 in 10.0 mi ESE 8.1 mph - N/A   Clear
6:55 AM 39.2 °F 33.6 °F 33.8 °F 81% 30.05 in 10.0 mi ESE 8.1 mph - N/A   Clear
7:15 AM 37.4 °F 32.1 °F 32.0 °F 81% 30.06 in 10.0 mi SE 6.9 mph - N/A   Clear
7:35 AM 39.2 °F 33.0 °F 33.8 °F 81% 30.06 in 10.0 mi SE 9.2 mph - N/A   Clear
7:55 AM 41.0 °F 34.3 °F 33.8 °F 76% 30.06 in 10.0 mi ESE 11.5 mph - N/A   Clear
8:15 AM 42.8 °F 35.8 °F 33.8 °F 70% 30.06 in 10.0 mi ESE 13.8 mph - N/A   Clear
8:35 AM 44.6 °F 37.8 °F 33.8 °F 66% 30.06 in 10.0 mi SE 15.0 mph 21.9 mph N/A   Clear
8:55 AM 46.4 °F 39.5 °F 33.8 °F 62% 30.06 in 10.0 mi SE 17.3 mph 21.9 mph N/A   Clear
9:15 AM 46.4 °F 38.7 °F 35.6 °F 66% 30.07 in 10.0 mi SSE 20.7 mph 27.6 mph N/A   Clear
9:35 AM 48.2 °F - 35.6 °F 62% 30.07 in 10.0 mi SE 19.6 mph 25.3 mph N/A   Clear
9:55 AM 50.0 °F - 35.6 °F 58% 30.06 in 10.0 mi SSE 17.3 mph 25.3 mph N/A   Clear
10:15 AM 51.8 °F - 35.6 °F 54% 30.06 in 10.0 mi SSE 15.0 mph 27.6 mph N/A   Clear
10:35 AM 51.8 °F - 35.6 °F 54% 30.04 in 10.0 mi SSE 25.3 mph 33.4 mph N/A   Clear
10:55 AM 51.8 °F - 35.6 °F 54% 30.03 in 10.0 mi SE 23.0 mph 34.5 mph N/A   Clear
11:15 AM 53.6 °F - 35.6 °F 51% 30.01 in 10.0 mi SSE 19.6 mph 33.4 mph N/A   Clear
11:35 AM 53.6 °F - 35.6 °F 51% 29.99 in 10.0 mi SSE 21.9 mph 33.4 mph N/A   Clear
11:55 AM 53.6 °F - 35.6 °F 51% 29.98 in 10.0 mi SSE 27.6 mph 34.5 mph N/A   Clear
12:15 PM 55.4 °F - 35.6 °F 47% 29.98 in 10.0 mi SSE 23.0 mph 32.2 mph N/A   Clear
12:35 PM 53.6 °F - 35.6 °F 51% 29.97 in 10.0 mi South 24.2 mph 31.1 mph N/A   Partly Cloudy
12:55 PM 53.6 °F - 33.8 °F 47% 29.95 in 10.0 mi SSE 16.1 mph 32.2 mph N/A   Mostly Cloudy
1:15 PM 53.6 °F - 35.6 °F 51% 29.93 in 10.0 mi SSE 19.6 mph 32.2 mph N/A   Overcast
1:35 PM 55.4 °F - 35.6 °F 47% 29.92 in 10.0 mi SSE 17.3 mph 27.6 mph N/A   Mostly Cloudy
2:15 PM 53.6 °F - 33.8 °F 47% 29.92 in 10.0 mi South 24.2 mph 31.1 mph N/A   Mostly Cloudy
2:35 PM 53.6 °F - 33.8 °F 47% 29.92 in 10.0 mi South 23.0 mph 31.1 mph N/A   Overcast
2:55 PM 53.6 °F - 33.8 °F 47% 29.90 in 10.0 mi SSE 18.4 mph 26.5 mph N/A   Overcast
3:15 PM 53.6 °F - 33.8 °F 47% 29.89 in 10.0 mi SSE 17.3 mph 27.6 mph N/A   Overcast
3:35 PM 53.6 °F - 35.6 °F 51% 29.86 in 10.0 mi SSE 16.1 mph 24.2 mph N/A   Overcast
3:55 PM 53.6 °F - 35.6 °F 51% 29.86 in 10.0 mi South 15.0 mph 27.6 mph N/A   Overcast
4:15 PM 53.6 °F - 35.6 °F 51% 29.85 in 10.0 mi SSE 20.7 mph 26.5 mph N/A   Overcast
4:35 PM 53.6 °F - 35.6 °F 51% 29.83 in 10.0 mi SSE 18.4 mph 23.0 mph N/A   Overcast
4:55 PM 53.6 °F - 35.6 °F 51% 29.81 in 10.0 mi SSE 19.6 mph 29.9 mph N/A   Overcast
5:15 PM 53.6 °F - 35.6 °F 51% 29.82 in 10.0 mi SSE 16.1 mph 20.7 mph N/A   Overcast
5:35 PM 53.6 °F - 35.6 °F 51% 29.80 in 10.0 mi South 18.4 mph 24.2 mph N/A   Overcast
5:55 PM 53.6 °F - 35.6 °F 51% 29.80 in 10.0 mi SSE 13.8 mph 19.6 mph N/A   Overcast
6:15 PM 53.6 °F - 35.6 °F 51% 29.79 in 10.0 mi SSE 18.4 mph 25.3 mph N/A   Overcast
6:35 PM 53.6 °F - 35.6 °F 51% 29.78 in 10.0 mi SSE 16.1 mph 25.3 mph N/A   Overcast
6:55 PM 53.6 °F - 35.6 °F 51% 29.76 in 10.0 mi SSE 20.7 mph 26.5 mph N/A   Overcast
7:15 PM 50.0 °F - 39.2 °F 66% 29.77 in 10.0 mi South 18.4 mph 25.3 mph 0.02 in Thunderstorm Overcast
7:35 PM 48.2 °F - 41.0 °F 76% 29.87 in 10.0 mi WSW 20.7 mph 33.4 mph 0.12 in Thunderstorm Thunderstorm
7:55 PM 48.2 °F - 39.2 °F 71% 29.81 in 10.0 mi SSE 15.0 mph 24.2 mph 0.12 in Thunderstorm Mostly Cloudy
8:15 PM 46.4 °F 40.4 °F 39.2 °F 76% 29.80 in 10.0 mi South 13.8 mph 17.3 mph N/A   Mostly Cloudy
8:35 PM 44.6 °F 38.8 °F 37.4 °F 76% 29.81 in 10.0 mi South 11.5 mph - N/A   Clear
8:55 PM 46.4 °F 40.4 °F 37.4 °F 71% 29.81 in 10.0 mi SSW 13.8 mph 20.7 mph N/A   Clear
9:15 PM 46.4 °F 39.2 °F 37.4 °F 71% 29.83 in 10.0 mi SW 18.4 mph 28.8 mph N/A   Clear
9:35 PM 46.4 °F 38.3 °F 37.4 °F 71% 29.84 in 10.0 mi SW 23.0 mph - N/A   Clear
9:55 PM 46.4 °F 39.0 °F 35.6 °F 66% 29.85 in 10.0 mi WSW 19.6 mph 26.5 mph N/A   Clear
10:15 PM 44.6 °F 35.9 °F 32.0 °F 61% 29.85 in 10.0 mi WSW 23.0 mph 28.8 mph N/A   Clear
10:35 PM 44.6 °F 37.2 °F 32.0 °F 61% 29.86 in 10.0 mi SW 17.3 mph 23.0 mph N/A   Clear
10:55 PM 42.8 °F 34.0 °F 30.2 °F 61% 29.87 in 10.0 mi SW 20.7 mph 29.9 mph N/A   Clear
11:15 PM 42.8 °F 33.8 °F 30.2 °F 61% 29.88 in 10.0 mi WSW 21.9 mph 29.9 mph N/A   Scattered Clouds
11:35 PM 42.8 °F 34.3 °F 32.0 °F 66% 29.90 in 10.0 mi WSW 19.6 mph 24.2 mph N/A   Overcast
11:55 PM 42.8 °F 33.8 °F 30.2 °F 61% 29.90 in 10.0 mi WSW 21.9 mph 34.5 mph N/A   Overcast